Location: Houston
(29.7630°N, 95.3630°W)
Time: 05:38:40
(UTC-05:00)

Amateur Radio Satellites - All Passes

Search period start: 03 July 2015 05:08
Search period end: 04 July 2015 05:08
Location: Houston, 29.7630°N, 95.3630°W

Satellite Date Start Highest point End Downlink Frequencies (MHz)
Time Altitude Azimuth
Gurwin Techsat 1B 03 Jul 05:13:14 05:15:49 13° 292° (WNW) 05:18:05 435.225
HORYU 2 03 Jul 05:17:56 05:22:23 74° 283° (WNW) 05:26:50 437.375
STARS 03 Jul 05:20:15 05:21:11 10° 268° (W) 05:21:47 437.465
JAS-2 03 Jul 05:22:30 05:29:05 55° 285° (WNW) 05:36:20 435.910
AO-7 03 Jul 05:52:11 06:00:30 69° 289° (WNW) 06:08:44 29.400- 29.500
MOZHAYETS 4 03 Jul 06:03:01 06:06:50 25° 264° (W) 06:10:35
CUBESAT XI-V 03 Jul 06:24:37 06:28:48 34° 74° (ENE) 06:33:06 437.345
Cosmos 2504 03 Jul 06:25:47 06:32:58 62° 93° (E) 06:40:01 435.465 / 435.565
VERMONT LUNAR 03 Jul 06:35:23 06:36:38 12° 140° (SE) 06:37:58 437.305
STRAND 1 03 Jul 06:42:32 06:46:01 19° 70° (ENE) 06:49:40 437.568
Cubesat XI-IV 03 Jul 06:45:00 06:49:04 23° 95° (E) 06:53:16 437.490
O/OREOS (USA 219) 03 Jul 07:11:32 07:14:09 16° 102° (ESE) 07:16:58 437.305
PRISM 03 Jul 07:18:46 07:22:38 40° 74° (ENE) 07:26:34 437.425
ISS 03 Jul 07:37:38 07:39:53 18° 128° (SE) 07:42:13 145.825
CUSAT 1 03 Jul 07:39:52 07:45:15 24° 95° (E) 07:50:01 437.405
AO-7 03 Jul 07:49:54 07:52:06 11° 304° (WNW) 07:53:36 29.400- 29.500
CUTE-I 03 Jul 07:50:13 07:55:34 76° 285° (WNW) 08:00:54 437.470
AIST 2 03 Jul 07:59:23 08:01:36 14° 110° (ESE) 08:04:01 435.215
CUBESAT XI-V 03 Jul 08:03:12 08:06:22 17° 267° (W) 08:09:20 437.345
PHONESAT 2.4 03 Jul 08:07:42 08:09:23 13° 140° (SE) 08:11:11 2401.200-2431.200
BRITE-PL 03 Jul 08:09:01 08:10:13 11° 91° (E) 08:11:42 437.365/2234.400
VERMONT LUNAR 03 Jul 08:10:12 08:13:18 69° 332° (NNW) 08:16:24 437.305
BEESAT 3 03 Jul 08:16:50 08:20:46 47° 300° (WNW) 08:24:43 437.485
STRAND 1 03 Jul 08:20:12 08:24:57 38° 262° (W) 08:29:43 437.568
Cosmos 2504 03 Jul 08:22:22 08:26:57 17° 289° (WNW) 08:31:04 435.465 / 435.565
Cubesat XI-IV 03 Jul 08:24:24 08:29:14 34° 288° (WNW) 08:33:57 437.490
BEESAT 2 03 Jul 08:26:53 08:30:50 47° 300° (WNW) 08:34:50 435.950
DANDE 03 Jul 08:31:01 08:38:42 55° 96° (E) 08:44:56 436.750
M-CUBED/EXP-1 PRIME 03 Jul 08:31:38 08:34:11 22° 69° (ENE) 08:36:50 437.505
O/OREOS (USA 219) 03 Jul 08:49:20 08:53:21 32° 294° (WNW) 08:57:19 437.305
PRISM 03 Jul 08:56:56 08:58:18 11° 268° (W) 08:59:23 437.425
SEEDS 03 Jul 09:01:33 09:03:00 12° 92° (E) 09:04:43 437.485
ISS 03 Jul 09:13:23 09:16:10 25° 320° (NW) 09:18:56 145.825
AAUSAT CUBESAT 2 03 Jul 09:16:29 09:17:46 11° 92° (E) 09:19:20 437.432
CUSAT 1 03 Jul 09:21:05 09:27:51 41° 279° (W) 09:33:09 437.405
GOMX 1 03 Jul 09:27:28 09:31:37 68° 100° (E) 09:35:45 467.674
GONETS M04 03 Jul 09:32:23 09:40:53 57° 92° (E) 09:49:26
AUBIESAT-1 03 Jul 09:32:44 09:35:54 44° 256° (WSW) 09:39:06 437.475
AIST 2 03 Jul 09:35:58 09:39:54 36° 301° (WNW) 09:43:50 435.215
CINEMA 3 03 Jul 09:38:03 09:41:06 20° 95° (E) 09:44:20 145.822/145.860
COMPASS 1 03 Jul 09:39:17 09:42:55 28° 97° (E) 09:46:37 437.405
HO-68 03 Jul 09:40:43 09:47:42 56° 101° (E) 09:54:44 435.675
PHONESAT 2.4 03 Jul 09:43:43 09:47:08 74° 331° (NNW) 09:50:34 2401.200-2431.200
CUTE 1.7 + AOD 2 03 Jul 09:44:13 09:48:26 56° 100° (E) 09:52:39 437.475
BRITE-PL 03 Jul 09:45:08 09:49:04 37° 286° (WNW) 09:52:52 437.365/2234.400
CANX-2 03 Jul 09:47:18 09:51:35 71° 100° (E) 09:55:52 2200.000
VERMONT LUNAR 03 Jul 09:48:30 09:50:36 16° 346° (NNW) 09:52:40 437.305
RS-15 03 Jul 09:50:48 09:54:35 12° 28° (NNE) 09:59:11 29.354- 29.394
UWE-3 03 Jul 09:55:48 09:56:22 10° 92° (E) 09:57:16 435.000/436.395/437.385
M-CUBED/EXP-1 PRIME 03 Jul 10:07:47 10:09:06 12° 262° (W) 10:10:15 437.505
TIGRISAT 03 Jul 10:13:17 10:14:58 12° 71° (ENE) 10:16:52 435.000
DANDE 03 Jul 10:16:08 10:21:54 22° 284° (WNW) 10:26:34 436.750
DOVE 4 03 Jul 10:18:35 10:22:33 44° 284° (WNW) 10:26:31 437.250
SEEDS 03 Jul 10:35:00 10:39:00 39° 285° (WNW) 10:42:58 437.485
CUBEBUG 2 03 Jul 10:35:04 10:39:08 46° 99° (E) 10:43:19 437.445
DUCHIFAT 1 03 Jul 10:43:11 10:43:25 10° 70° (ENE) 10:43:58 145.980
Cosmos 2499 03 Jul 10:43:24 10:49:02 27° 89° (E) 10:54:50 435.465 / 435.565
ZACube-1 03 Jul 10:43:38 10:47:28 33° 98° (E) 10:51:25 437.345
POLYITAN 1 03 Jul 10:45:11 10:46:41 12° 70° (ENE) 10:48:26 437.675
AAUSAT CUBESAT 2 03 Jul 10:49:38 10:53:35 39° 285° (WNW) 10:57:30 437.432
UNISAT 6 03 Jul 10:49:59 10:53:57 37° 75° (ENE) 10:57:56 437.425
UKube-1 03 Jul 10:54:41 10:56:13 12° 92° (E) 10:58:03 .
Oscar 11 03 Jul 10:55:18 10:59:40 89° 283° (WNW) 11:04:01 145.826/435.025
BUGSAT 1 03 Jul 11:04:45 11:06:28 13° 71° (ENE) 11:08:25 437.445
QB50P2 03 Jul 11:12:54 11:16:29 27° 74° (ENE) 11:20:07 145.880/145.840
HUMSAT D 03 Jul 11:13:53 11:17:34 30° 97° (E) 11:21:19 437.325/437.525
POPSAT HIP 1 03 Jul 11:14:00 11:17:34 27° 73° (ENE) 11:21:12 437.405
DELFI C3 03 Jul 11:14:27 11:18:31 73° 283° (WNW) 11:22:34 145.870
CINEMA 3 03 Jul 11:14:57 11:18:16 23° 287° (WNW) 11:21:33 145.822/145.860
COMPASS 1 03 Jul 11:15:35 11:18:23 17° 288° (WNW) 11:21:03 437.405
FUNcube-1 03 Jul 11:20:05 11:24:19 82° 282° (WNW) 11:28:38 145.935
PHONESAT 2.4 03 Jul 11:23:00 11:25:32 19° 346° (NNW) 11:28:04 2401.200-2431.200
VERMONT LUNAR 03 Jul 11:27:06 11:28:21 12° 3° (N) 11:29:37 437.305
50 SAT 03 Jul 11:28:50 11:31:46 21° 95° (E) 11:34:49 437.505
UWE-3 03 Jul 11:29:06 11:33:09 44° 284° (WNW) 11:37:15 435.000/436.395/437.385
HO-68 03 Jul 11:29:41 11:35:02 22° 294° (WNW) 11:40:06 435.675
ESTCUBE 1 03 Jul 11:30:33 11:32:10 12° 92° (E) 11:34:05 437.505/2401.250
GONETS M04 03 Jul 11:31:17 11:38:15 24° 288° (WNW) 11:44:50
ANTELSAT 03 Jul 11:34:10 11:38:26 57° 260° (W) 11:42:38 437.575/2403.000
TIGRISAT 03 Jul 11:47:21 11:51:26 40° 261° (W) 11:55:27 435.000
VELOX 1 03 Jul 11:51:05 11:55:06 35° 98° (E) 11:59:08 145.980
QB50P1 03 Jul 11:52:25 11:56:40 88° 86° (E) 12:00:56 145.935-145.965
RS-15 03 Jul 11:59:47 12:11:03 50° 55° (NE) 12:22:49 29.354- 29.394
DX 1 03 Jul 12:05:21 12:09:41 73° 284° (WNW) 12:13:58 434.975-435.025
NANOSAT C BR1 03 Jul 12:07:14 12:11:26 60° 259° (W) 12:15:37 145.865
CUBEBUG 2 03 Jul 12:14:32 12:15:31 10° 289° (WNW) 12:16:13 437.445
DUCHIFAT 1 03 Jul 12:14:45 12:18:52 49° 260° (W) 12:22:58 145.980
POLYITAN 1 03 Jul 12:18:14 12:22:17 41° 261° (W) 12:26:17 437.675
ZACube-1 03 Jul 12:21:10 12:23:36 15° 288° (WNW) 12:25:52 437.345
UKube-1 03 Jul 12:28:31 12:32:34 40° 286° (WNW) 12:36:35 .
UNISAT 6 03 Jul 12:28:53 12:30:55 13° 267° (W) 12:32:41 437.425
SPROUT 03 Jul 12:32:17 12:34:17 13° 92° (E) 12:36:32 437.525
Cosmos 2499 03 Jul 12:35:26 12:41:59 37° 282° (WNW) 12:48:23 435.465 / 435.565
AISAT 03 Jul 12:37:31 12:41:50 56° 284° (WNW) 12:46:07 437.250
BUGSAT 1 03 Jul 12:37:38 12:41:37 39° 261° (W) 12:45:35 437.445
QB50P2 03 Jul 12:49:28 12:52:23 17° 266° (W) 12:55:10 145.880/145.840
POPSAT HIP 1 03 Jul 12:50:30 12:53:27 18° 266° (W) 12:56:14 437.405
HUMSAT D 03 Jul 12:50:33 12:53:05 15° 288° (WNW) 12:55:28 437.325/437.525
CUBEBUG 1 03 Jul 12:59:31 13:03:49 60° 284° (WNW) 13:08:04 437.445
PHONESAT 2.4 03 Jul 13:02:31 13:04:24 14° 3° (N) 13:06:19 2401.200-2431.200
VERMONT LUNAR 03 Jul 13:03:22 13:05:59 23° 19° (NNE) 13:08:38 437.305
50 SAT 03 Jul 13:03:25 13:06:17 19° 287° (WNW) 13:09:04 437.505
ESTCUBE 1 03 Jul 13:04:58 13:09:18 44° 285° (WNW) 13:13:34 437.505/2401.250
Oscar 19 03 Jul 13:12:35 13:16:16 21° 70° (ENE) 13:20:06 437.125/150
TISAT 1 03 Jul 13:17:34 13:21:16 31° 97° (E) 13:25:01 437.305
VELOX 1 03 Jul 13:28:47 13:31:23 15° 290° (WNW) 13:33:48 145.980
SPROUT 03 Jul 14:06:37 14:10:32 35° 285° (WNW) 14:14:22 437.525
RS-15 03 Jul 14:12:30 14:23:28 42° 251° (WSW) 14:34:24 29.354- 29.394
VERMONT LUNAR 03 Jul 14:39:57 14:43:03 52° 214° (SW) 14:46:10 437.305
PHONESAT 2.4 03 Jul 14:40:09 14:43:09 27° 20° (NNE) 14:46:11 2401.200-2431.200
BEESAT 03 Jul 14:44:24 14:49:01 47° 100° (E) 14:53:37 436.000
Gurwin Techsat 1B 03 Jul 14:46:06 14:51:13 51° 74° (ENE) 14:56:22 435.225
Oscar 19 03 Jul 14:50:43 14:55:25 34° 262° (W) 15:00:03 437.125/150
TISAT 1 03 Jul 14:54:20 14:56:48 15° 289° (WNW) 14:59:06 437.305
AO-7 03 Jul 14:55:39 15:00:15 17° 60° (ENE) 15:05:21 29.400- 29.500
ITAMSAT 1 03 Jul 14:59:00 15:04:09 69° 76° (ENE) 15:09:22 435.822/435.867
SWISSCUBE 03 Jul 14:59:39 15:04:28 80° 103° (ESE) 15:09:16 437.505
ITUPSAT 1 03 Jul 15:04:22 15:09:12 80° 103° (ESE) 15:14:01 437.325
YUBILEINY 03 Jul 15:14:07 15:22:42 58° 80° (E) 15:31:20 435.215
Cosmos 2491 03 Jul 15:27:13 15:35:20 45° 90° (E) 15:43:35 435.465 / 435.565
JAS-2 03 Jul 15:30:19 15:34:42 30° 72° (ENE) 15:39:15 435.910
STARS 03 Jul 15:37:24 15:39:40 14° 93° (E) 15:42:10 437.465
ISS 03 Jul 15:45:41 15:47:52 17° 37° (NE) 15:50:08 145.825
PCSat 03 Jul 15:46:46 15:51:46 40° 110° (ESE) 15:56:50 145.827
AIST 1 03 Jul 15:49:52 15:53:37 29° 91° (E) 15:57:28
HORYU 2 03 Jul 16:10:12 16:14:25 46° 75° (ENE) 16:18:39 437.375
JUGNU 03 Jul 16:10:59 16:14:53 18° 165° (SSE) 16:18:52 437.505
KKS-1 03 Jul 16:17:06 16:21:32 84° 100° (E) 16:25:58 437.445
PHONESAT 2.4 03 Jul 16:17:55 16:21:19 51° 213° (SSW) 16:24:43 2401.200-2431.200
BEESAT 03 Jul 16:24:01 16:26:30 14° 291° (WNW) 16:28:43 436.000
Cosmos 2504 03 Jul 16:26:39 16:30:27 15° 70° (ENE) 16:35:00 435.465 / 435.565
Gurwin Techsat 1B 03 Jul 16:28:38 16:31:32 14° 268° (W) 16:34:07 435.225
BEESAT 3 03 Jul 16:42:02 16:44:27 16° 53° (NE) 16:47:01 437.485
AO-7 03 Jul 16:43:51 16:52:12 85° 253° (WSW) 17:00:37 29.400- 29.500
BEESAT 2 03 Jul 16:52:36 16:55:07 16° 53° (NE) 16:57:44 435.950
SRMSAT 03 Jul 17:02:46 17:04:43 12° 161° (SSE) 17:06:50 437.500
SO-50 03 Jul 17:11:32 17:16:07 66° 115° (ESE) 17:20:54 436.795
STARS 03 Jul 17:12:16 17:16:15 35° 286° (WNW) 17:20:12 437.465
YUBILEINY 03 Jul 17:12:23 17:19:02 23° 274° (W) 17:25:16 435.215
JAS-2 03 Jul 17:15:55 17:19:56 22° 265° (W) 17:23:49 435.910
ISS 03 Jul 17:21:26 17:24:20 30° 231° (SW) 17:27:11 145.825
Cosmos 2491 03 Jul 17:24:39 17:32:23 32° 286° (WNW) 17:39:52 435.465 / 435.565
O/OREOS (USA 219) 03 Jul 17:27:33 17:29:26 13° 60° (ENE) 17:31:35 437.305
AIST 1 03 Jul 17:28:31 17:31:21 16° 285° (WNW) 17:34:00
PCSat 03 Jul 17:31:14 17:35:22 21° 305° (NW) 17:39:22 145.827
HORYU 2 03 Jul 17:50:06 17:51:21 11° 268° (W) 17:52:16 437.375
JUGNU 03 Jul 17:58:21 18:03:27 29° 173° (S) 18:08:32 437.505
Cubesat XI-IV 03 Jul 18:01:29 18:05:21 21° 70° (ENE) 18:09:25 437.490
MOZHAYETS 4 03 Jul 18:03:11 18:07:49 68° 283° (WNW) 18:12:25
AIST 2 03 Jul 18:03:34 18:06:54 23° 56° (NE) 18:10:15 435.215
Cosmos 2504 03 Jul 18:16:48 18:24:41 81° 265° (W) 18:33:08 435.465 / 435.565
BEESAT 3 03 Jul 18:18:55 18:22:31 31° 248° (WSW) 18:26:01 437.485
CUBESAT XI-V 03 Jul 18:28:52 18:31:08 14° 92° (E) 18:33:39 437.345
BEESAT 2 03 Jul 18:29:39 18:33:17 31° 248° (WSW) 18:36:47 435.950
AO-7 03 Jul 18:42:59 18:46:10 12° 270° (W) 18:48:29 29.400- 29.500
SRMSAT 03 Jul 18:48:46 18:53:24 24° 169° (SSE) 18:58:05 437.500
SO-50 03 Jul 18:55:14 18:57:14 12° 312° (NW) 18:59:01 436.795
O/OREOS (USA 219) 03 Jul 19:04:49 19:09:09 45° 255° (WSW) 19:13:29 437.305
CUTE-I 03 Jul 19:05:52 19:11:13 84° 256° (WSW) 19:16:38 437.470
BRITE-PL 03 Jul 19:14:10 19:15:34 11° 70° (ENE) 19:17:21 437.365/2234.400
Cubesat XI-IV 03 Jul 19:40:19 19:45:14 37° 262° (W) 19:50:09 437.490
AIST 2 03 Jul 19:42:07 19:45:22 22° 249° (WSW) 19:48:28 435.215
JUGNU 03 Jul 19:46:51 19:52:04 31° 183° (S) 19:57:15 437.505
GONETS M04 03 Jul 19:51:51 19:57:31 20° 70° (ENE) 20:03:42
HO-68 03 Jul 20:04:15 20:09:24 23° 66° (ENE) 20:14:48 435.675
CUBESAT XI-V 03 Jul 20:04:23 20:08:48 41° 285° (WNW) 20:13:07 437.345
CUSAT 1 03 Jul 20:06:05 20:08:40 71° 261° (W) 20:11:21 437.405
GOMX 1 03 Jul 20:28:52 20:33:46 41° 75° (ENE) 20:38:28 467.674
CUTE 1.7 + AOD 2 03 Jul 20:32:15 20:35:06 19° 72° (ENE) 20:38:06 437.475
CANX-2 03 Jul 20:35:03 20:38:17 23° 73° (ENE) 20:41:38 2200.000
STRAND 1 03 Jul 20:36:28 20:41:35 68° 284° (WNW) 20:46:39 437.568
CINEMA 3 03 Jul 20:36:43 20:37:20 10° 71° (ENE) 20:38:16 145.822/145.860
SRMSAT 03 Jul 20:36:56 20:42:08 31° 178° (S) 20:47:20 437.500
PRISM 03 Jul 20:42:01 20:46:05 49° 285° (WNW) 20:50:06 437.425
BRITE-PL 03 Jul 20:48:04 20:53:41 73° 259° (WSW) 20:59:01 437.365/2234.400
DANDE 03 Jul 21:05:31 21:06:30 11° 267° (W) 21:07:22 436.750
DOVE 4 03 Jul 21:17:12 21:22:15 85° 75° (ENE) 21:26:59 437.250
AUBIESAT-1 03 Jul 21:18:06 21:21:23 21° 100° (E) 21:24:55 437.475
SEEDS 03 Jul 21:20:37 21:24:43 62° 77° (ENE) 21:28:51 437.485
CUBEBUG 2 03 Jul 21:28:31 21:31:32 19° 73° (ENE) 21:34:38 437.445
AAUSAT CUBESAT 2 03 Jul 21:33:58 21:38:00 58° 77° (ENE) 21:42:05 437.432
ZACube-1 03 Jul 21:35:45 21:37:36 13° 71° (ENE) 21:39:39 437.345
JUGNU 03 Jul 21:36:07 21:40:38 22° 193° (SSW) 21:45:04 437.505
Oscar 11 03 Jul 21:44:24 21:48:10 31° 74° (ENE) 21:52:01 145.826/435.025
GONETS M04 03 Jul 21:46:34 21:55:10 67° 267° (W) 22:03:43
HO-68 03 Jul 21:49:45 21:56:44 55° 259° (W) 22:03:42 435.675
M-CUBED/EXP-1 PRIME 03 Jul 21:50:37 21:54:56 63° 105° (ESE) 21:59:32 437.505
DELFI C3 03 Jul 21:56:05 21:59:28 28° 74° (ENE) 22:02:56 145.870
COMPASS 1 03 Jul 21:59:22 22:03:24 51° 260° (W) 22:07:26 437.405
HUMSAT D 03 Jul 22:03:23 22:03:24 10° 70° (ENE) 22:03:42 437.325/437.525
CUTE 1.7 + AOD 2 03 Jul 22:07:21 22:10:52 25° 264° (W) 22:14:19 437.475
GOMX 1 03 Jul 22:08:27 22:12:00 17° 266° (W) 22:15:12 467.674
CINEMA 3 03 Jul 22:09:41 22:14:14 53° 260° (W) 22:18:34 145.822/145.860
FUNcube-1 03 Jul 22:10:11 22:14:01 34° 75° (ENE) 22:17:50 145.935
CANX-2 03 Jul 22:10:57 22:14:10 20° 265° (W) 22:17:15 2200.000
UWE-3 03 Jul 22:20:02 22:24:18 66° 77° (ENE) 22:28:29 435.000/436.395/437.385
SRMSAT 03 Jul 22:25:56 22:30:53 28° 188° (S) 22:35:49 437.500
Cosmos 2499 03 Jul 22:31:15 22:38:57 51° 80° (E) 22:47:14 435.465 / 435.565
VELOX 1 03 Jul 22:43:59 22:46:38 16° 71° (ENE) 22:49:28 145.980
UNISAT 6 03 Jul 22:49:12 22:51:10 13° 93° (E) 22:53:25 437.425
AUBIESAT-1 03 Jul 22:52:20 22:56:03 28° 290° (WNW) 22:59:53 437.475
DX 1 03 Jul 22:54:54 22:59:02 43° 74° (ENE) 23:03:12 434.975-435.025
CUBEBUG 2 03 Jul 23:04:26 23:08:06 25° 263° (W) 23:11:37 437.445
ZACube-1 03 Jul 23:09:45 23:13:42 36° 262° (W) 23:17:35 437.345
UKube-1 03 Jul 23:16:49 23:21:08 76° 77° (ENE) 23:25:29 .
Oscar 11 03 Jul 23:21:50 23:24:27 15° 267° (W) 23:26:53 145.826/435.025
AISAT 03 Jul 23:28:55 23:33:19 59° 76° (ENE) 23:37:44 437.250
ANTELSAT 03 Jul 23:31:46 23:36:00 45° 99° (E) 23:40:20 437.575/2403.000
DELFI C3 03 Jul 23:32:14 23:34:37 15° 267° (W) 23:36:49 145.870
HUMSAT D 03 Jul 23:34:51 23:38:48 45° 261° (W) 23:42:44 437.325/437.525
50 SAT 03 Jul 23:40:27 23:44:17 84° 258° (WSW) 23:48:07 437.505
QB50P1 03 Jul 23:44:14 23:47:29 22° 96° (E) 23:50:49 145.935-145.965
TIGRISAT 03 Jul 23:44:22 23:48:43 63° 101° (E) 23:53:11 435.000
FUNcube-1 03 Jul 23:48:20 23:50:29 13° 267° (W) 23:52:23 145.935
CUBEBUG 1 03 Jul 23:49:21 23:53:38 50° 75° (ENE) 23:57:56 437.445
ESTCUBE 1 03 Jul 23:58:06 00:02:36 79° 77° (ENE) 00:07:10 437.505/2401.250
NANOSAT C BR1 03 Jul 23:58:19 00:02:06 33° 98° (E) 00:05:54 145.865
DUCHIFAT 1 04 Jul 00:05:25 00:09:20 39° 99° (E) 00:13:17 145.980
TISAT 1 04 Jul 00:06:02 00:07:24 12° 70° (ENE) 00:09:01 437.305
POLYITAN 1 04 Jul 00:09:24 00:13:28 48° 99° (E) 00:17:33 437.675
SRMSAT 04 Jul 00:16:01 00:19:34 16° 196° (SSW) 00:23:00 437.500
VELOX 1 04 Jul 00:18:51 00:22:56 34° 262° (W) 00:26:59 145.980
UNISAT 6 04 Jul 00:24:00 00:28:07 39° 285° (WNW) 00:32:18 437.425
Cosmos 2499 04 Jul 00:25:20 00:31:49 26° 272° (W) 00:38:17 435.465 / 435.565
BUGSAT 1 04 Jul 00:25:45 00:29:37 44° 99° (E) 00:33:27 437.445
DX 1 04 Jul 00:33:50 00:35:31 12° 268° (W) 00:36:54 434.975-435.025
QB50P2 04 Jul 00:39:09 00:43:20 66° 283° (WNW) 00:47:29 145.880/145.840
POPSAT HIP 1 04 Jul 00:40:04 00:44:14 67° 283° (WNW) 00:48:23 437.405
SPROUT 04 Jul 00:54:07 00:58:25 79° 78° (ENE) 01:02:45 437.525
ANTELSAT 04 Jul 01:10:37 01:12:28 12° 290° (WNW) 01:14:05 437.575/2403.000
QB50P1 04 Jul 01:20:01 01:23:15 21° 288° (WNW) 01:26:22 145.935-145.965
CUBEBUG 1 04 Jul 01:29:55 01:30:18 10° 269° (W) 01:30:21 437.445
Oscar 19 04 Jul 01:31:51 01:33:08 11° 91° (E) 01:34:51 437.125/150
NANOSAT C BR1 04 Jul 01:35:18 01:37:41 14° 289° (WNW) 01:39:51 145.865
TISAT 1 04 Jul 01:38:47 01:42:50 42° 261° (W) 01:46:52 437.305
DUCHIFAT 1 04 Jul 01:43:06 01:44:50 12° 290° (WNW) 01:46:19 145.980
BEESAT 04 Jul 01:45:23 01:49:20 27° 72° (ENE) 01:53:25 436.000
Cosmos 2491 04 Jul 01:47:34 01:51:41 15° 67° (ENE) 01:56:29 435.465 / 435.565
SO-50 04 Jul 01:50:28 01:52:59 14° 49° (NE) 01:55:43 436.795
SWISSCUBE 04 Jul 02:00:16 02:04:47 45° 74° (ENE) 02:09:21 437.505
ITUPSAT 1 04 Jul 02:05:14 02:09:46 45° 74° (ENE) 02:14:21 437.325
RS-15 04 Jul 02:15:41 02:26:05 55° 111° (ESE) 02:36:45 29.354- 29.394
PCSat 04 Jul 02:23:26 02:28:53 89° 54° (NE) 02:34:18 145.827
Oscar 19 04 Jul 03:07:53 03:12:56 60° 285° (WNW) 03:17:58 437.125/150
Gurwin Techsat 1B 04 Jul 03:08:42 03:13:28 34° 97° (E) 03:18:17 435.225
KKS-1 04 Jul 03:09:28 03:13:29 35° 74° (ENE) 03:17:34 437.445
ITAMSAT 1 04 Jul 03:18:15 03:23:07 40° 99° (E) 03:28:00 435.822/435.867
BEESAT 04 Jul 03:23:25 03:27:10 22° 265° (W) 03:30:49 436.000
SO-50 04 Jul 03:29:08 03:33:59 58° 245° (WSW) 03:38:41 436.795
AIST 1 04 Jul 03:40:03 03:44:23 70° 83° (E) 03:48:40
SWISSCUBE 04 Jul 03:40:28 03:42:54 13° 268° (W) 03:45:03 437.505
Cosmos 2491 04 Jul 03:41:01 03:49:48 85° 264° (W) 03:58:29 435.465 / 435.565
ITUPSAT 1 04 Jul 03:45:31 03:47:56 13° 268° (W) 03:50:03 437.325
STARS 04 Jul 04:02:31 04:06:56 88° 265° (W) 04:11:21 437.465
YUBILEINY 04 Jul 04:07:01 04:15:41 80° 94° (E) 04:24:23 435.215
HORYU 2 04 Jul 04:08:44 04:11:10 15° 93° (E) 04:13:50 437.375
JAS-2 04 Jul 04:27:27 04:34:12 58° 100° (E) 04:41:40 435.910
RS-15 04 Jul 04:29:06 04:38:54 35° 311° (NW) 04:48:44 29.354- 29.394
KKS-1 04 Jul 04:47:36 04:50:15 15° 267° (W) 04:52:41 437.445
Gurwin Techsat 1B 04 Jul 04:49:08 04:53:16 22° 290° (WNW) 04:57:13 435.225
AO-7 04 Jul 04:52:35 05:00:35 49° 101° (E) 05:08:35 29.400- 29.500
ITAMSAT 1 04 Jul 04:58:44 05:02:21 19° 291° (WNW) 05:05:45 435.822/435.867
MOZHAYETS 4 04 Jul 04:58:57 05:03:23 54° 76° (ENE) 05:07:52
Cosmos 2504 04 Jul 05:01:16 05:03:03 11° 85° (E) 05:05:28 435.465 / 435.565
